Home > Weather > Ciudad del Este > Past weeks

Flag for Paraguay Weather for the Past 2 Weeks in Ciudad del Este, Paraguay

Now
54 °F

Clear.


Feels Like: 53 °F
Forecast: 44 / 64 °F
Wind: 3 mph from Southwest

Location: Foz Do Iguacu Aeroporto

Current Time: Apr 29, 2016 at 8:18:43 PM

Latest Report: Apr 29, 2016 at 7:00 PM


Visibility: 10 mi

Pressure: 30.12 "Hg

Humidity: 77%

Dew Point: 46 °F

Location of Ciudad del EsteLocation

Historic Weather in Ciudad del Este — Graph

°F

Ciudad del Este Temperature Yesterday

Maximum temperature yesterday: 59 °F (at 12:00 PM)
Minimum temperature yesterday: 37 °F (at 5:00 AM)
Average temperature yesterday: 49 °F

High & Low Weather Summary for the Past Weeks

 TemperatureHumidityPressure
High93 °F (Apr 17, 1:00 PM)100% (Apr 25, 10:00 AM)30.27 "Hg (Apr 25, 10:00 AM)
Low32 °F (Apr 25, 10:00 AM)28% (Apr 25, 5:00 PM)29.62 "Hg (Apr 25, 3:00 PM)
Average72 °F75%29.93 "Hg
* Reported Apr 14 6:00 PM — Apr 29 6:00 PM, Ciudad del Este, Weather by CustomWeather, © 2016

Note: Actual official high and low records may vary slightly from our data, if they occured in-between our weather recording intervals... More about our weather records

Advertising

Ciudad del Este Weather History for the Previous 24 Hours

Scroll right to see more
 ConditionsComfort  
Time TempWeatherWind HumidityBarometerVisibility
6:00 PM
Fri, Apr 29
55 °FClear.2 mph72%30.12 "Hg10 mi
5:00 PM61 °FClear.3 mph55%30.09 "Hg10 mi
4:00 PM64 °FSunny.5 mph46%30.09 "Hg10 mi
3:00 PM66 °FSunny.5 mph46%30.09 "Hg10 mi
2:00 PM66 °FSunny.6 mph46%30.09 "Hg10 mi
1:00 PM64 °FSunny.5 mph52%30.12 "Hg10 mi
12:00 PM64 °FSunny.6 mph56%30.12 "Hg10 mi
11:00 AM63 °FSunny.5 mph56%30.15 "Hg10 mi
10:00 AM59 °FSunny.6 mph63%30.15 "Hg10 mi
9:00 AM55 °FSunny.5 mph67%30.18 "Hg10 mi
8:00 AM52 °FSunny.2 mph77%30.15 "Hg10 mi
7:00 AM46 °FSunny.5 mph93%30.15 "Hg10 mi
6:00 AM45 °FSunny.2 mph93%30.15 "Hg10 mi
5:00 AM46 °FSunny.2 mph93%30.15 "Hg10 mi
4:00 AM46 °FClear.5 mph93%30.12 "Hg10 mi
3:00 AM46 °FClear.5 mph93%30.12 "Hg10 mi
2:00 AM46 °FClear.5 mph87%30.12 "Hg10 mi
1:00 AM48 °FClear.8 mph82%30.15 "Hg10 mi
12:00 AM48 °FClear.2 mph87%30.18 "Hg10 mi
11:00 PM
Thu, Apr 28
50 °FClear.7 mph82%30.15 "Hg10 mi
10:00 PM50 °FClear.5 mph82%30.15 "Hg10 mi
9:00 PM50 °FClear.2 mph82%30.15 "Hg10 mi
8:00 PM48 °FClear.2 mph82%30.15 "Hg10 mi
Weather by CustomWeather, © 2016

See weather overviewHow to use our weather pages